When you browse on this site, cookies collect data to enhance your experience and personalize the content and advertising you see.
Visit our Privacy Policy to learn more. By continuing to use the site, you agree to this use of cookies and data.
  • In United Kingdom
  • List of Countries
  • For 7 days
  • Water Temperature
  • Weather Map
  • Weather Widgets
  • user-avatar
    Login

    Hourly Weather Erd

    Today, 5 April, Sunday

    Time Temperature Precipitation Wind Pressure Humidity
    00:00 +6°C° 0 mm 4 mps 759 mmHg 55%
    01:00 +7°C° 0 mm 3 mps 759 mmHg 57%
    02:00 +7°C° 0 mm 3 mps 759 mmHg 57%
    03:00 +5°C° 0 mm 3 mps 760 mmHg 57%
    04:00 +5°C° 0 mm 4 mps 760 mmHg 57%
    05:00 +6°C° 0 mm 4 mps 760 mmHg 56%
    06:00 +6°C° 0 mm 5 mps 760 mmHg 55%
    07:00 +7°C° 0 mm 5 mps 761 mmHg 53%
    08:00 +8°C° 0 mm 5 mps 761 mmHg 52%
    09:00 +10°C° 0 mm 5 mps 761 mmHg 50%
    10:00 +13°C° 0 mm 5 mps 761 mmHg 48%
    11:00 +14°C° 0 mm 5 mps 761 mmHg 47%
    12:00 +15°C° 0 mm 5 mps 761 mmHg 47%
    13:00 +17°C° 0 mm 4 mps 761 mmHg 46%
    14:00 +17°C° 0 mm 4 mps 760 mmHg 46%
    15:00 +17°C° 0 mm 4 mps 760 mmHg 46%
    16:00 +17°C° 0 mm 4 mps 760 mmHg 46%
    17:00 +14°C° 0 mm 4 mps 760 mmHg 51%
    18:00 +13°C° 0 mm 4 mps 760 mmHg 55%
    19:00 +11°C° 0 mm 3 mps 760 mmHg 60%
    20:00 +11°C° 0 mm 3 mps 761 mmHg 61%
    21:00 +10°C° 0 mm 3 mps 761 mmHg 62%
    22:00 +9°C° 0 mm 3 mps 761 mmHg 63%
    23:00 +9°C° 0 mm 3 mps 762 mmHg 64%

    Tomorrow, 6 April, Monday

    Time Temperature Precipitation Wind Pressure Humidity
    00:00 +8°C° 0 mm 3 mps 762 mmHg 66%
    01:00 +8°C° 0 mm 3 mps 762 mmHg 67%
    02:00 +7°C° 0 mm 3 mps 762 mmHg 69%
    03:00 +7°C° 0 mm 3 mps 762 mmHg 72%
    04:00 +5°C° 0 mm 3 mps 762 mmHg 74%
    05:00 +7°C° 0 mm 3 mps 763 mmHg 69%
    06:00 +8°C° 0 mm 3 mps 763 mmHg 63%
    07:00 +8°C° 0 mm 3 mps 764 mmHg 58%
    08:00 +10°C° 0 mm 3 mps 764 mmHg 52%
    09:00 +11°C° 0 mm 4 mps 764 mmHg 47%
    10:00 +13°C° 0 mm 4 mps 765 mmHg 41%
    11:00 +14°C° 0 mm 4 mps 765 mmHg 39%
    12:00 +15°C° 0 mm 4 mps 765 mmHg 37%
    13:00 +15°C° 0 mm 4 mps 764 mmHg 35%
    14:00 +15°C° 0 mm 4 mps 764 mmHg 36%
    15:00 +15°C° 0 mm 4 mps 764 mmHg 37%
    16:00 +15°C° 0 mm 4 mps 764 mmHg 38%
    17:00 +14°C° 0 mm 3 mps 764 mmHg 43%
    18:00 +12°C° 0 mm 3 mps 764 mmHg 48%
    19:00 +12°C° 0 mm 2 mps 764 mmHg 52%
    20:00 +10°C° 0 mm 2 mps 764 mmHg 54%
    21:00 +9°C° 0 mm 2 mps 764 mmHg 55%
    22:00 +10°C° 0 mm 1 mps 765 mmHg 57%
    23:00 +9°C° 0 mm 1 mps 765 mmHg 57%

    Day after tomorrow, 7 April, Tuesday

    Time Temperature Precipitation Wind Pressure Humidity
    00:00 +9°C° 0 mm 1 mps 765 mmHg 58%
    01:00 +8°C° 0 mm 1 mps 765 mmHg 59%
    02:00 +8°C° 0 mm 1 mps 765 mmHg 61%
    03:00 +8°C° 0 mm 1 mps 765 mmHg 62%
    04:00 +6°C° 0 mm 0 mps 765 mmHg 63%
    05:00 +8°C° 0 mm 1 mps 765 mmHg 60%
    06:00 +9°C° 0 mm 1 mps 766 mmHg 57%
    07:00 +10°C° 0 mm 1 mps 766 mmHg 53%
    08:00 +11°C° 0 mm 1 mps 766 mmHg 48%
    09:00 +12°C° 0 mm 2 mps 766 mmHg 42%
    10:00 +14°C° 0 mm 2 mps 766 mmHg 36%
    11:00 +15°C° 0 mm 2 mps 766 mmHg 34%
    12:00 +16°C° 0 mm 2 mps 766 mmHg 33%
    13:00 +17°C° 0 mm 2 mps 766 mmHg 31%
    14:00 +18°C° 0 mm 1 mps 765 mmHg 31%
    15:00 +18°C° 0 mm 1 mps 765 mmHg 31%
    16:00 +19°C° 0 mm 1 mps 764 mmHg 31%
    17:00 +16°C° 0 mm 1 mps 764 mmHg 34%
    18:00 +13°C° 0 mm 0 mps 764 mmHg 38%
    19:00 +12°C° 0 mm 0 mps 764 mmHg 42%
    20:00 +11°C° 0 mm 0 mps 764 mmHg 43%
    21:00 +11°C° 0 mm 0 mps 764 mmHg 44%
    22:00 +10°C° 0 mm 0 mps 764 mmHg 46%
    23:00 +10°C° 0 mm 0 mps 764 mmHg 47%

    8 April, Wednesday

    Time Temperature Precipitation Wind Pressure Humidity
    00:00 +10°C° 0 mm 1 mps 764 mmHg 48%
    01:00 +10°C° 0 mm 1 mps 764 mmHg 49%
    02:00 +9°C° 0 mm 1 mps 764 mmHg 50%
    03:00 +9°C° 0 mm 1 mps 764 mmHg 51%
    04:00 +8°C° 0 mm 0 mps 764 mmHg 52%
    05:00 +9°C° 0 mm 0 mps 764 mmHg 51%
    06:00 +9°C° 0 mm 0 mps 764 mmHg 50%
    07:00 +10°C° 0 mm 0 mps 764 mmHg 48%
    08:00 +12°C° 0 mm 0 mps 763 mmHg 44%
    09:00 +14°C° 0 mm 0 mps 763 mmHg 40%
    10:00 +18°C° 0 mm 1 mps 763 mmHg 35%
    11:00 +19°C° 0 mm 1 mps 763 mmHg 33%
    12:00 +20°C° 0 mm 1 mps 762 mmHg 31%
    13:00 +20°C° 0 mm 1 mps 762 mmHg 29%
    14:00 +20°C° 0 mm 1 mps 761 mmHg 29%
    15:00 +20°C° 0 mm 1 mps 760 mmHg 29%
    16:00 +20°C° 0 mm 1 mps 760 mmHg 29%
    17:00 +19°C° 0 mm 1 mps 760 mmHg 33%
    18:00 +16°C° 0 mm 1 mps 760 mmHg 38%
    19:00 +14°C° 0 mm 1 mps 759 mmHg 42%
    20:00 +13°C° 0 mm 0 mps 759 mmHg 44%
    21:00 +12°C° 0 mm 0 mps 759 mmHg 46%
    22:00 +11°C° 0 mm 0 mps 759 mmHg 48%
    23:00 +11°C° 0 mm 0 mps 759 mmHg 49%

    9 April, Thursday

    Time Temperature Precipitation Wind Pressure Humidity
    00:00 +11°C° 0 mm 0 mps 759 mmHg 51%
    01:00 +10°C° 0 mm 0 mps 758 mmHg 52%
    02:00 +10°C° 0 mm 0 mps 758 mmHg 53%
    03:00 +9°C° 0 mm 0 mps 758 mmHg 54%
    04:00 +9°C° 0 mm 0 mps 758 mmHg 55%
    05:00 +10°C° 0 mm 0 mps 758 mmHg 54%
    06:00 +11°C° 0 mm 0 mps 758 mmHg 52%
    07:00 +12°C° 0 mm 0 mps 758 mmHg 51%
    08:00 +14°C° 0 mm 0 mps 758 mmHg 47%
    09:00 +16°C° 0 mm 1 mps 758 mmHg 44%
    10:00 +19°C° 0 mm 1 mps 758 mmHg 40%
    11:00 +20°C° 0 mm 1 mps 757 mmHg 37%
    12:00 +19°C° 0 mm 2 mps 757 mmHg 35%
    13:00 +20°C° 0 mm 2 mps 757 mmHg 33%
    14:00 +20°C° 0 mm 2 mps 756 mmHg 33%
    15:00 +20°C° 0 mm 2 mps 756 mmHg 34%
    16:00 +20°C° 0 mm 2 mps 755 mmHg 34%
    17:00 +19°C° 0 mm 2 mps 755 mmHg 39%
    18:00 +17°C° 0 mm 2 mps 755 mmHg 44%
    19:00 +15°C° 0 mm 2 mps 755 mmHg 50%
    20:00 +14°C° 0 mm 2 mps 755 mmHg 51%
    21:00 +14°C° 0 mm 2 mps 755 mmHg 53%
    22:00 +13°C° 0 mm 2 mps 755 mmHg 54%
    23:00 +13°C° 0 mm 2 mps 755 mmHg 56%

    10 April, Friday

    Time Temperature Precipitation Wind Pressure Humidity
    00:00 +11°C° 0 mm 3 mps 755 mmHg 59%
    01:00 +11°C° 0 mm 3 mps 755 mmHg 61%
    02:00 +11°C° 0 mm 3 mps 755 mmHg 63%
    03:00 +10°C° 0 mm 3 mps 755 mmHg 66%
    04:00 +10°C° 0 mm 4 mps 755 mmHg 68%
    05:00 +10°C° 0 mm 4 mps 756 mmHg 69%
    06:00 +11°C° 0 mm 4 mps 756 mmHg 69%
    07:00 +11°C° 0 mm 4 mps 756 mmHg 70%
    08:00 +13°C° 0 mm 5 mps 756 mmHg 62%
    09:00 +15°C° 0 mm 5 mps 757 mmHg 54%
    10:00 +16°C° 0 mm 5 mps 757 mmHg 47%
    11:00 +17°C° 0 mm 5 mps 757 mmHg 45%
    12:00 +18°C° 0 mm 4 mps 757 mmHg 43%
    13:00 +19°C° 0 mm 4 mps 757 mmHg 41%
    14:00 +19°C° 0 mm 4 mps 757 mmHg 41%
    15:00 +19°C° 0 mm 4 mps 756 mmHg 41%
    16:00 +17°C° 0 mm 5 mps 756 mmHg 41%
    17:00 +17°C° 0 mm 4 mps 756 mmHg 43%
    18:00 +14°C° 0 mm 3 mps 756 mmHg 46%
    19:00 +12°C° 0 mm 3 mps 756 mmHg 48%
    20:00 +12°C° 0 mm 2 mps 757 mmHg 50%
    21:00 +12°C° 0 mm 2 mps 757 mmHg 52%
    22:00 +10°C° 0 mm 2 mps 757 mmHg 53%
    23:00 +9°C° 0 mm 2 mps 757 mmHg 54%
    Show more